星链-3641 (STARLINK-3641 )

导读 | 豆包AI

STARLINK-3641是美国SpaceX公司星链(Starlink)星座中的一颗1.5版本通信卫星,于2022年2月25日发射升空。作为星链全球卫星互联网组网的组成部分,它采用激光星间链路技术,运行在近地轨道,旨在为全球尤其是偏远地区提供高速低延迟的宽带互联网服务,支撑星链商用及多场景通信拓展,助力SpaceX完成巨型低轨星座部署,目前处于服役运行状态。

Basic Information
目录编号:
51788
目录名称:
STARLINK-3641
国际标识:
2022-017W
轨道中心:
EARTH
卫星名称:
星链-3641
卫星全名:
星链-3641 (STARLINK-3641 )
卫星状态:
在轨 (已飞行1478 天)
发射日期:
2022-02-25 UTC
国别 :
美国 (US)
星等 :
--
Orbit Information
数据来源 国际轨道数据 AOE轨道数据
星历时间 2026-03-14T08:25:13+0800
22小时前
查看轨道信息
2026-03-12T16:00:00+0800
2天前
查看轨道信息
半长轴 6917.802km 6917.809km
偏心率 0.0001707 0.0001906
轨道倾角 53.218° 53.218°
近地点辐角 85.255° 70.803°
升交点赤经 329.696° 337.255°
平近点角 274.864° 136.091°
近地点 538.484km 538.353km
远地点 540.846km 540.991km
周期 95.436分钟 95.436分钟
每日圈数 15.088659 15.088634
Detailed Information
固有亮度:
5
最大亮度:
2.5
卫星平台:
Starlink v1.5
覆盖范围:
全球
运营商:
太空探索技术公司
运营商所在国:
美国
制造商(研发单位):
太空探索技术公司
制造商所在国:
美国
使用方式:
暂无
Satellite Introduction
星链(Starlink)计划是由太空探索技术公司(SpaceX)提出的一个巨型低轨卫星互联网星座项目,计划在2019年至2024年间在太空搭建由约1.2万颗卫星组成的“星链”网络,其中1584颗将部署在地球上空550千米处的近地轨道,并从2020年开始工作。该卫星仍在工作。
2D Orbit Map
3D Orbit Map
Orbit Altitude Analysis Chart
Orbit Inclination Analysis Chart
Orbit Comprehensive Analysis Chart
View Comprehensive Chart